Torna al catalogo

COSMOS 970 DEB

AttivoLEO
NORAD 64981·DEBRIS·🇷🇺 Russia

Lanciato Dec 21, 1977 da Baikonur Cosmodrome

Loading…

Prossimi Passaggi (prossime 24 ore)

TLE

ObsoletoSource: Space-Track

Epoca: Sep 4, 2026, 21:22 UTC

1 64981U 77121CS  26247.89057892 -.00000047  00000-0  39243-4 0  9992
2 64981  65.8454 113.7872 0132159 214.7145 144.5233 13.58635711 97587

Traccia COSMOS 970 DEB in tempo reale con AllMySat

Download on the App Store